Time,TemperatureF,DewpointF,PressureIn,WindDirection,WindDirectionDegrees,WindSpeedMPH,WindSpeedGustMPH,Humidity,HourlyPrecipIn,Conditions,Clouds,dailyrainin,SoftwareType,DateUTC
2013-03-27 00:07:00,34.6,27.0,29.87,East,79,4.0,11.0,74,0.00,,,0.02,weatherlink.com 1.10,2013-03-27 00:07:00,
2013-03-27 00:22:00,34.5,27.0,29.87,East,94,5.0,13.0,73,0.00,,,0.02,weatherlink.com 1.10,2013-03-27 00:22:00,
2013-03-27 00:37:00,34.8,26.0,29.87,SE,126,5.0,13.0,69,0.00,,,0.02,weatherlink.com 1.10,2013-03-27 00:37:00,
2013-03-27 00:52:00,34.7,24.0,29.86,East,101,5.0,14.0,66,0.00,,,0.02,weatherlink.com 1.10,2013-03-27 00:52:00,
2013-03-27 01:07:00,34.5,25.0,29.86,SE,136,2.0,12.0,67,0.00,,,0.02,weatherlink.com 1.10,2013-03-27 01:07:00,
2013-03-27 01:22:00,34.4,24.0,29.86,SE,127,7.0,11.0,67,0.00,,,0.02,weatherlink.com 1.10,2013-03-27 01:22:00,
2013-03-27 01:37:00,34.3,24.0,29.86,ESE,114,5.0,10.0,67,0.00,,,0.02,weatherlink.com 1.10,2013-03-27 01:37:00,
2013-03-27 01:52:00,34.5,25.0,29.86,East,100,3.0,9.0,69,0.00,,,0.02,weatherlink.com 1.10,2013-03-27 01:52:00,
2013-03-27 02:07:00,33.8,28.0,29.86,ESE,120,10.0,17.0,78,0.00,,,0.02,weatherlink.com 1.10,2013-03-27 02:07:00,
2013-03-27 02:22:00,32.9,28.0,29.85,East,100,4.0,8.0,83,0.00,,,0.02,weatherlink.com 1.10,2013-03-27 02:22:00,
2013-03-27 02:37:00,32.6,29.0,29.86,ESE,113,9.0,12.0,86,0.00,,,0.00,weatherlink.com 1.10,2013-03-27 02:37:00,
2013-03-27 02:52:00,32.5,29.0,29.85,East,97,3.0,8.0,87,0.00,,,0.00,weatherlink.com 1.10,2013-03-27 02:52:00,
2013-03-27 03:07:00,32.9,29.0,29.84,SSE,150,2.0,6.0,85,0.00,,,0.00,weatherlink.com 1.10,2013-03-27 03:07:00,
2013-03-27 03:22:00,33.0,29.0,29.85,ENE,64,11.0,12.0,84,0.00,,,0.00,weatherlink.com 1.10,2013-03-27 03:22:00,
2013-03-27 03:38:00,31.2,29.0,29.85,ENE,77,5.0,8.0,90,0.00,,,0.00,weatherlink.com 1.10,2013-03-27 03:38:00,
2013-03-27 03:53:00,31.4,30.0,29.84,South,184,5.0,10.0,93,0.00,,,0.00,weatherlink.com 1.10,2013-03-27 03:53:00,
2013-03-27 04:08:00,31.9,30.0,29.85,ENE,67,8.0,10.0,91,0.00,,,0.00,weatherlink.com 1.10,2013-03-27 04:08:00,
2013-03-27 04:23:00,31.8,29.0,29.84,East,96,3.0,9.0,90,0.00,,,0.00,weatherlink.com 1.10,2013-03-27 04:23:00,
2013-03-27 04:38:00,31.7,29.0,29.84,East,81,4.0,7.0,89,0.00,,,0.00,weatherlink.com 1.10,2013-03-27 04:38:00,
2013-03-27 04:53:00,32.2,29.0,29.84,ESE,106,3.0,6.0,86,0.00,,,0.00,weatherlink.com 1.10,2013-03-27 04:53:00,
2013-03-27 05:08:00,32.4,29.0,29.85,ESE,107,8.0,17.0,88,0.00,,,0.00,weatherlink.com 1.10,2013-03-27 05:08:00,
2013-03-27 05:23:00,31.5,30.0,29.84,NE,43,1.0,7.0,92,0.00,,,0.00,weatherlink.com 1.10,2013-03-27 05:23:00,
2013-03-27 05:38:00,31.7,30.0,29.84,ENE,65,3.0,5.0,93,0.00,,,0.00,weatherlink.com 1.10,2013-03-27 05:38:00,
2013-03-27 05:53:00,31.8,30.0,29.85,NNE,16,5.0,7.0,93,0.00,,,0.00,weatherlink.com 1.10,2013-03-27 05:53:00,
2013-03-27 06:08:00,31.5,30.0,29.85,East,85,10.0,16.0,92,0.00,,,0.00,weatherlink.com 1.10,2013-03-27 06:08:00,
2013-03-27 06:23:00,31.3,29.0,29.84,East,96,2.0,5.0,92,0.00,,,0.00,weatherlink.com 1.10,2013-03-27 06:23:00,
2013-03-27 06:38:00,31.6,30.0,29.84,East,98,4.0,10.0,92,0.00,,,0.00,weatherlink.com 1.10,2013-03-27 06:38:00,
2013-03-27 06:53:00,32.4,30.0,29.84,East,100,4.0,11.0,90,0.00,,,0.00,weatherlink.com 1.10,2013-03-27 06:53:00,
2013-03-27 07:08:00,32.3,30.0,29.84,East,98,3.0,5.0,90,0.00,,,0.00,weatherlink.com 1.10,2013-03-27 07:08:00,
2013-03-27 07:23:00,33.1,30.0,29.84,ENE,69,5.0,10.0,87,0.00,,,0.00,weatherlink.com 1.10,2013-03-27 07:23:00,
2013-03-27 07:38:00,33.2,30.0,29.84,NNE,33,3.0,6.0,89,0.00,,,0.00,weatherlink.com 1.10,2013-03-27 07:38:00,
2013-03-27 07:53:00,33.1,31.0,29.84,ESE,111,3.0,5.0,90,0.00,,,0.00,weatherlink.com 1.10,2013-03-27 07:53:00,
2013-03-27 08:08:00,33.5,30.0,29.85,NE,54,4.0,12.0,87,0.00,,,0.00,weatherlink.com 1.10,2013-03-27 08:08:00,
2013-03-27 08:23:00,33.4,30.0,29.85,East,90,8.0,13.0,88,0.00,,,0.00,weatherlink.com 1.10,2013-03-27 08:23:00,
2013-03-27 08:38:00,32.7,30.0,29.85,East,101,4.0,14.0,88,0.00,,,0.00,weatherlink.com 1.10,2013-03-27 08:38:00,
2013-03-27 08:53:00,32.6,30.0,29.85,NE,36,2.0,6.0,91,0.00,,,0.00,weatherlink.com 1.10,2013-03-27 08:53:00,
2013-03-27 09:08:00,32.3,30.0,29.85,East,88,2.0,7.0,92,0.00,,,0.00,weatherlink.com 1.10,2013-03-27 09:08:00,
2013-03-27 09:23:00,32.5,31.0,29.85,SE,127,3.0,6.0,93,0.00,,,0.00,weatherlink.com 1.10,2013-03-27 09:23:00,
2013-03-27 09:38:00,32.9,31.0,29.85,SE,129,6.0,8.0,93,0.00,,,0.00,weatherlink.com 1.10,2013-03-27 09:38:00,
2013-03-27 09:53:00,33.3,31.0,29.84,ESE,115,5.0,11.0,92,0.00,,,0.00,weatherlink.com 1.10,2013-03-27 09:53:00,
2013-03-27 10:08:00,34.1,32.0,29.84,East,91,2.0,5.0,91,0.00,,,0.00,weatherlink.com 1.10,2013-03-27 10:08:00,
2013-03-27 10:23:00,34.8,32.0,29.83,SE,133,5.0,7.0,89,0.00,,,0.00,weatherlink.com 1.10,2013-03-27 10:23:00,
2013-03-27 10:38:00,34.5,31.0,29.83,ESE,104,3.0,7.0,88,0.00,,,0.00,weatherlink.com 1.10,2013-03-27 10:38:00,
2013-03-27 10:53:00,34.1,31.0,29.83,ESE,115,2.0,10.0,89,0.00,,,0.00,weatherlink.com 1.10,2013-03-27 10:53:00,
2013-03-27 11:08:00,35.3,32.0,29.83,East,100,4.0,8.0,88,0.00,,,0.00,weatherlink.com 1.10,2013-03-27 11:08:00,
2013-03-27 11:23:00,35.2,31.0,29.84,East,84,5.0,11.0,86,0.00,,,0.00,weatherlink.com 1.10,2013-03-27 11:23:00,
2013-03-27 11:38:00,35.1,30.0,29.83,ESE,112,8.0,9.0,83,0.00,,,0.00,weatherlink.com 1.10,2013-03-27 11:38:00,
2013-03-27 11:53:00,36.0,30.0,29.83,SE,129,4.0,13.0,78,0.00,,,0.00,weatherlink.com 1.10,2013-03-27 11:53:00,
2013-03-27 12:08:00,36.3,30.0,29.83,SE,146,4.0,13.0,78,0.02,,,0.02,weatherlink.com 1.10,2013-03-27 12:08:00,
2013-03-27 12:23:00,35.8,30.0,29.84,NE,54,5.0,13.0,80,0.03,,,0.03,weatherlink.com 1.10,2013-03-27 12:23:00,
2013-03-27 12:38:00,35.7,30.0,29.83,NNE,22,6.0,9.0,81,0.04,,,0.04,weatherlink.com 1.10,2013-03-27 12:38:00,
2013-03-27 12:53:00,34.6,30.0,29.84,East,83,6.0,16.0,84,0.05,,,0.05,weatherlink.com 1.10,2013-03-27 12:53:00,
2013-03-27 13:08:00,33.7,31.0,29.84,ENE,57,2.0,7.0,89,0.03,,,0.05,weatherlink.com 1.10,2013-03-27 13:08:00,
2013-03-27 13:23:00,34.2,31.0,29.84,SE,129,3.0,14.0,88,0.02,,,0.06,weatherlink.com 1.10,2013-03-27 13:23:00,
2013-03-27 13:38:00,35.6,31.0,29.83,ESE,112,2.0,10.0,84,0.02,,,0.07,weatherlink.com 1.10,2013-03-27 13:38:00,
2013-03-27 13:54:00,36.7,31.0,29.83,East,99,7.0,16.0,79,0.04,,,0.09,weatherlink.com 1.10,2013-03-27 13:54:00,
2013-03-27 14:09:00,36.2,32.0,29.84,NE,56,8.0,16.0,84,0.06,,,0.10,weatherlink.com 1.10,2013-03-27 14:09:00,
2013-03-27 14:24:00,34.8,32.0,29.84,ESE,118,4.0,9.0,89,0.06,,,0.11,weatherlink.com 1.10,2013-03-27 14:24:00,
2013-03-27 14:39:00,35.8,32.0,29.83,NE,45,5.0,10.0,86,0.05,,,0.12,weatherlink.com 1.10,2013-03-27 14:39:00,
2013-03-27 14:54:00,37.0,32.0,29.82,East,97,3.0,10.0,82,0.03,,,0.12,weatherlink.com 1.10,2013-03-27 14:54:00,
2013-03-27 15:09:00,38.1,31.0,29.82,ESE,103,12.0,14.0,74,0.02,,,0.13,weatherlink.com 1.10,2013-03-27 15:09:00,
2013-03-27 15:24:00,35.9,31.0,29.83,NE,34,6.0,14.0,83,0.02,,,0.13,weatherlink.com 1.10,2013-03-27 15:24:00,
2013-03-27 15:39:00,36.4,31.0,29.82,NE,40,5.0,9.0,82,0.02,,,0.13,weatherlink.com 1.10,2013-03-27 15:39:00,
2013-03-27 15:54:00,37.5,31.0,29.83,East,87,7.0,11.0,77,0.02,,,0.13,weatherlink.com 1.10,2013-03-27 15:54:00,
2013-03-27 16:09:00,36.3,31.0,29.83,SE,138,4.0,11.0,80,0.01,,,0.13,weatherlink.com 1.10,2013-03-27 16:09:00,
2013-03-27 16:24:00,35.1,31.0,29.83,East,98,3.0,6.0,85,0.01,,,0.13,weatherlink.com 1.10,2013-03-27 16:24:00,
2013-03-27 16:39:00,36.6,31.0,29.83,NE,34,7.0,11.0,79,0.01,,,0.14,weatherlink.com 1.10,2013-03-27 16:39:00,
2013-03-27 16:54:00,37.1,31.0,29.83,ENE,63,5.0,10.0,78,0.01,,,0.14,weatherlink.com 1.10,2013-03-27 16:54:00,
2013-03-27 17:09:00,36.0,31.0,29.83,ESE,121,6.0,7.0,81,0.01,,,0.14,weatherlink.com 1.10,2013-03-27 17:09:00,
2013-03-27 17:24:00,36.6,31.0,29.83,ESE,121,3.0,9.0,81,0.01,,,0.14,weatherlink.com 1.10,2013-03-27 17:24:00,
2013-03-27 17:39:00,37.1,30.0,29.83,NE,56,5.0,8.0,75,0.00,,,0.14,weatherlink.com 1.10,2013-03-27 17:39:00,
2013-03-27 17:54:00,37.2,29.0,29.84,NE,51,2.0,11.0,72,0.00,,,0.14,weatherlink.com 1.10,2013-03-27 17:54:00,
2013-03-27 18:09:00,36.6,31.0,29.84,East,79,4.0,12.0,79,0.00,,,0.14,weatherlink.com 1.10,2013-03-27 18:09:00,
2013-03-27 18:24:00,36.1,30.0,29.84,SE,139,4.0,11.0,78,0.00,,,0.14,weatherlink.com 1.10,2013-03-27 18:24:00,
2013-03-27 18:39:00,35.7,30.0,29.84,East,95,4.0,7.0,80,0.00,,,0.14,weatherlink.com 1.10,2013-03-27 18:39:00,
2013-03-27 18:54:00,35.5,31.0,29.85,ENE,68,4.0,5.0,82,0.00,,,0.14,weatherlink.com 1.10,2013-03-27 18:54:00,
2013-03-27 19:09:00,35.5,31.0,29.85,ESE,115,9.0,10.0,82,0.00,,,0.14,weatherlink.com 1.10,2013-03-27 19:09:00,
2013-03-27 19:24:00,35.5,30.0,29.85,SE,128,7.0,14.0,81,0.00,,,0.14,weatherlink.com 1.10,2013-03-27 19:24:00,
2013-03-27 19:39:00,35.4,30.0,29.86,East,96,11.0,14.0,81,0.00,,,0.14,weatherlink.com 1.10,2013-03-27 19:39:00,
2013-03-27 19:54:00,34.8,29.0,29.86,ESE,113,5.0,8.0,80,0.00,,,0.14,weatherlink.com 1.10,2013-03-27 19:54:00,
2013-03-27 20:09:00,35.0,29.0,29.86,ESE,107,6.0,9.0,80,0.00,,,0.14,weatherlink.com 1.10,2013-03-27 20:09:00,
2013-03-27 20:24:00,35.2,30.0,29.86,ESE,122,3.0,8.0,81,0.00,,,0.14,weatherlink.com 1.10,2013-03-27 20:24:00,
2013-03-27 20:39:00,35.1,30.0,29.86,SE,134,2.0,7.0,82,0.00,,,0.14,weatherlink.com 1.10,2013-03-27 20:39:00,
2013-03-27 20:54:00,35.1,30.0,29.85,East,93,10.0,13.0,82,0.00,,,0.14,weatherlink.com 1.10,2013-03-27 20:54:00,
2013-03-27 21:09:00,34.0,30.0,29.85,NE,56,1.0,10.0,86,0.00,,,0.14,weatherlink.com 1.10,2013-03-27 21:09:00,
2013-03-27 21:24:00,34.8,30.0,29.85,East,94,7.0,8.0,83,0.00,,,0.14,weatherlink.com 1.10,2013-03-27 21:24:00,
2013-03-27 21:39:00,35.7,30.0,29.84,ENE,77,6.0,9.0,80,0.00,,,0.14,weatherlink.com 1.10,2013-03-27 21:39:00,
2013-03-27 21:54:00,36.0,30.0,29.84,East,101,4.0,8.0,79,0.00,,,0.14,weatherlink.com 1.10,2013-03-27 21:54:00,
2013-03-27 22:09:00,33.8,31.0,29.85,East,98,4.0,14.0,88,0.00,,,0.14,weatherlink.com 1.10,2013-03-27 22:09:00,
2013-03-27 22:24:00,32.9,31.0,29.85,East,83,4.0,7.0,92,0.00,,,0.14,weatherlink.com 1.10,2013-03-27 22:24:00,
2013-03-27 22:39:00,32.8,31.0,29.84,East,92,1.0,4.0,92,0.00,,,0.14,weatherlink.com 1.10,2013-03-27 22:39:00,
2013-03-27 22:54:00,33.1,31.0,29.84,ENE,58,4.0,7.0,92,0.00,,,0.14,weatherlink.com 1.10,2013-03-27 22:54:00,
2013-03-27 23:09:00,32.8,31.0,29.85,ENE,64,1.0,8.0,92,0.00,,,0.14,weatherlink.com 1.10,2013-03-27 23:09:00,
2013-03-27 23:24:00,32.6,31.0,29.85,East,101,2.0,10.0,93,0.00,,,0.14,weatherlink.com 1.10,2013-03-27 23:24:00,
2013-03-27 23:39:00,32.6,31.0,29.84,East,94,1.0,3.0,93,0.00,,,0.14,weatherlink.com 1.10,2013-03-27 23:39:00,
2013-03-27 23:54:00,32.7,31.0,29.85,SE,132,1.0,4.0,93,0.00,,,0.14,weatherlink.com 1.10,2013-03-27 23:54:00,